Sarasota, FL

1:02 AM EST on December 15, 2019 (GMT -0500)
Sarasota-bradenton

Weather History for KSRQ - September, 2019

Change the Weather History Date:

Wednesday, September 4, 2019

  Actual Average Record
Temperature  
Mean Temperature 86 °F 82 °F  
Max Temperature 91 °F 89 °F 95 °F (1970)
Min Temperature 82 °F 75 °F 68 °F (1974)
Degree Days  
Heating Degree Days 0 0  
Month to date heating degree days 0 0  
Since 1 July heating degree days 0 0  
Cooling Degree Days 22 17  
Month to date cooling degree days 87 68  
Year to date cooling degree days 2945 2365  
Growing Degree Days 36 (Base 50)    
Moisture  
Dew Point 76 °F    
Average Humidity 70    
Maximum Humidity 79    
Minimum Humidity 63    
Precipitation  
Precipitation 0.00 in 0.34 in 5.82 in (1935)
Month to date precipitation 0.16 1.37  
Year to date precipitation 41.55 39.70  
Sea Level Pressure  
Sea Level Pressure 29.83 in    
Wind  
Wind Speed 11 mph ()    
Max Wind Speed 22 mph    
Max Gust Speed 27 mph    
Visibility 10.0 miles    
Events      
T = Trace of Precipitation, MM = Missing Value Source: Averaged Metar Reports

Daily Weather History Graph

Daily Weather History Graph

Search for Another Location

Airport or City:

Astronomy

Sep. 04, 2019 Rise Set
Actual Time 7:10 AM EDT 7:47 PM EDT
Civil Twilight 6:46 AM EDT 8:11 PM EDT
Nautical Twilight 6:19 AM EDT 8:38 PM EDT
Astronomical Twilight 5:50 AM EDT 9:07 PM EDT
Moon 12:39 PM EDT (9/4) 11:54 PM EDT (9/4)
Length of Visible Light 13h 24m
Length of Day
12h 37m
Waxing Crescent, 34% of the Moon is Illuminated
Sep 4
Waxing Crescent
Sep 5
First Quarter
Sep 14
Full
Sep 21
Last Quarter
Sep 28
New

Hourly Weather History & Observations

Time (EDT) Temp. Heat Index Dew Point Humidity Pressure Visibility Wind Dir Wind Speed Gust Speed Precip Events Conditions
12:53 AM 84.0 °F 91.9 °F 75.0 °F 74% 29.78 in 10.0 mi NNW 11.5 mph - N/A   Clear
1:53 AM 82.9 °F 90.2 °F 75.0 °F 77% 29.77 in 10.0 mi NW 8.1 mph - N/A   Clear
2:53 AM 82.9 °F 89.4 °F 73.9 °F 74% 29.77 in 10.0 mi NW 9.2 mph - N/A   Clear
3:53 AM 82.9 °F 90.2 °F 75.0 °F 77% 29.76 in 10.0 mi NW 10.4 mph - N/A   Clear
4:53 AM 82.9 °F 90.2 °F 75.0 °F 77% 29.78 in 10.0 mi NW 8.1 mph - N/A   Clear
5:53 AM 82.9 °F 90.2 °F 75.0 °F 77% 29.79 in 10.0 mi NW 10.4 mph - N/A   Clear
6:53 AM 82.9 °F 90.2 °F 75.0 °F 77% 29.79 in 10.0 mi NW 9.2 mph - N/A   Clear
7:53 AM 84.0 °F 91.9 °F 75.0 °F 74% 29.82 in 10.0 mi NW 8.1 mph - N/A   Clear
8:53 AM 86.0 °F 96.0 °F 75.9 °F 72% 29.83 in 10.0 mi NW 11.5 mph - N/A   Clear
9:53 AM 88.0 °F 100.2 °F 77.0 °F 70% 29.84 in 10.0 mi NW 11.5 mph 24.2 mph N/A   Scattered Clouds
10:53 AM 89.1 °F 101.4 °F 77.0 °F 67% 29.85 in 10.0 mi NW 18.4 mph 24.2 mph N/A   Scattered Clouds
11:46 AM 88.0 °F 98.5 °F 75.9 °F 67% 29.86 in 10.0 mi WNW 15.0 mph 23.0 mph N/A   Mostly Cloudy
11:53 AM 88.0 °F 98.5 °F 75.9 °F 67% 29.86 in 10.0 mi WNW 17.3 mph - N/A   Scattered Clouds
12:53 PM 88.0 °F 98.5 °F 75.9 °F 67% 29.85 in 10.0 mi WNW 17.3 mph - N/A   Scattered Clouds
1:53 PM 88.0 °F 98.5 °F 75.9 °F 67% 29.85 in 10.0 mi WNW 18.4 mph - N/A   Scattered Clouds
2:53 PM 90.0 °F 102.5 °F 77.0 °F 65% 29.84 in 10.0 mi WNW 18.4 mph - N/A   Scattered Clouds
3:53 PM 91.0 °F 104.2 °F 77.0 °F 63% 29.83 in 10.0 mi WNW 17.3 mph - N/A   Scattered Clouds
4:19 PM 91.0 °F 104.2 °F 77.0 °F 63% 29.84 in 10.0 mi WNW 18.4 mph - N/A   Mostly Cloudy
4:32 PM 91.0 °F 104.2 °F 77.0 °F 63% 29.84 in 10.0 mi WNW 16.1 mph - N/A   Scattered Clouds
4:53 PM 90.0 °F 101.3 °F 75.9 °F 63% 29.85 in 10.0 mi WNW 17.3 mph - N/A   Partly Cloudy
5:53 PM 88.0 °F 98.5 °F 75.9 °F 67% 29.85 in 10.0 mi WNW 16.1 mph - N/A   Partly Cloudy
6:53 PM 87.1 °F 97.3 °F 75.9 °F 69% 29.85 in 10.0 mi WNW 16.1 mph - N/A   Scattered Clouds
7:53 PM 86.0 °F 96.0 °F 75.9 °F 72% 29.86 in 10.0 mi WNW 13.8 mph - N/A   Clear
8:53 PM 86.0 °F 96.9 °F 77.0 °F 74% 29.88 in 10.0 mi WNW 12.7 mph - N/A   Clear
9:53 PM 86.0 °F 96.0 °F 75.9 °F 72% 29.89 in 10.0 mi WNW 11.5 mph - N/A   Clear
10:53 PM 86.0 °F 96.9 °F 77.0 °F 74% 29.90 in 10.0 mi WNW 12.7 mph - N/A   Clear